Terminal Aerodrome Forecast
Issued by NWS Greer, SC

Home | Current Version | Previous Version | Text Only | Print | Product List | Glossary On
Versions: 1 2 3 4 5 6 7 8 9 10 11 12 13 14 15 16 17 18 19 20 21 22 23 24 25 26 27 28 29 30 31 32 33 34 35 36 37
000
FTUS42 KGSP 202154 AAB
TAFAVL
TAF AMD
KAVL 202154Z 2022/2118 16003KT P6SM BKN014 OVC020
     FM210000 00000KT P6SM OVC010
     FM210600 00000KT 5SM BR BKN006
     FM211300 00000KT 5SM BR BKN010=

USA.gov is the U.S. government's official web portal to all federal, state and local government web resources and services.